USA 342

Last updated on Thu Dec 11 2025 00:02:51 GMT+0000 (Coordinated Universal Time)

1 55263U 23008A 25343.57030699 .00000000 00000+0 00000+0 0 9998 2 55263 0.0161 337.6680 0000251 111.4944 218.6612 1.00271265 10614
UTC large
Height (km)
Speed (km/s)
/
Latitude / Longitude
Inclination (degrees)
Orbital Period (minutes)
Azimuth
Elevation
Range (km)
Doppler Factor

Next 0 passes for location: London (51.5072 / 0.1276)

Sorry there are no passes over London.